period_start,C,m1,H,J0,J1,J2,J3,J4,J5,JA,JB,JC,JD,JJ,JK,JN,#
2014-09-17 00:03:46,0.01,0.18,0.00,22.80,26.54,29.01,9.47,40.48,1004.41,2041.94,3408.35,3286.98,3557.83,500.41,491.38,14.52,0000 0000 0000 0000 000000
2014-09-17 00:08:47,0.00,0.18,0.00,22.84,26.55,29.00,9.54,40.52,1004.41,2041.96,3408.24,3286.98,3557.59,500.07,491.10,14.56,0000 0000 0000 0000 000000
2014-09-17 00:13:48,0.01,0.18,0.00,22.90,26.55,28.98,9.44,40.37,1004.41,2041.97,3408.13,3286.98,3557.35,499.79,490.68,14.60,0000 0000 0000 0000 000000
2014-09-17 00:18:49,-0.00,0.18,0.00,22.91,26.55,29.00,9.41,40.48,1004.42,2041.87,3408.01,3286.83,3557.05,499.41,490.47,14.64,0000 0000 0000 0000 000000
2014-09-17 00:23:50,0.01,0.18,0.00,22.87,26.55,29.04,9.45,40.55,1004.56,2041.93,3408.00,3286.76,3557.01,500.17,491.28,14.68,0000 0000 0000 0000 000000
2014-09-17 00:28:51,0.00,0.18,0.00,22.86,26.55,29.07,9.48,40.58,1004.80,2041.89,3407.98,3286.55,3557.00,499.91,491.09,14.72,0000 0000 0000 0000 000000
2014-09-17 00:33:53,0.01,0.18,0.00,22.84,26.55,29.07,9.46,40.55,1004.80,2041.93,3407.95,3286.32,3557.00,499.84,491.10,14.77,0000 0000 0000 0000 000000
2014-09-17 00:38:53,-0.00,0.18,0.00,22.80,26.56,29.06,9.50,40.51,1004.88,2041.85,3407.66,3286.10,3556.99,500.34,491.53,14.81,0000 0000 0000 0000 000000
2014-09-17 00:43:54,0.02,0.18,0.00,22.82,26.57,29.04,9.49,40.42,1004.90,2041.89,3407.44,3286.04,3556.97,499.93,491.46,14.85,0000 0000 0000 0000 000000
2014-09-17 00:48:56,0.01,0.18,0.00,22.83,26.57,29.04,9.50,40.37,1004.90,2041.92,3407.20,3286.05,3556.90,500.51,491.78,14.89,0000 0000 0000 0000 000000
2014-09-17 00:53:56,0.01,0.18,0.00,22.85,26.57,29.04,9.47,40.40,1004.90,2041.90,3407.01,3286.01,3556.38,499.90,491.31,14.93,0000 0000 0000 0000 000000
2014-09-17 00:58:58,-0.00,0.18,0.00,22.91,26.57,29.04,9.47,40.43,1004.90,2041.85,3407.00,3286.00,3556.05,500.02,491.21,14.98,0000 0000 0000 0000 000000
2014-09-17 01:03:59,0.00,0.18,0.00,22.94,26.57,29.06,9.45,40.28,1004.90,2041.88,3406.95,3286.00,3556.01,499.82,490.97,15.02,0000 0000 0000 0000 000000
2014-09-17 01:09:00,-0.00,0.18,0.00,22.89,26.57,29.09,9.52,40.33,1004.91,2041.81,3406.76,3285.99,3556.00,500.36,491.63,15.06,0000 0000 0000 0000 000000
2014-09-17 01:14:01,-0.00,0.18,0.00,22.86,26.58,29.10,9.45,40.42,1004.97,2041.64,3406.15,3285.96,3555.99,499.73,490.99,15.10,0000 0000 0000 0000 000000
2014-09-17 01:19:02,0.01,0.18,0.00,22.83,26.60,29.09,9.45,40.33,1005.07,2041.69,3406.13,3285.97,3555.98,499.55,490.76,15.14,0000 0000 0000 0000 000000
2014-09-17 01:24:04,-0.01,0.18,0.00,22.89,26.60,29.07,9.51,40.42,1005.30,2041.55,3406.08,3285.76,3555.91,500.12,491.57,15.18,0000 0000 0000 0000 000000
2014-09-17 01:29:05,0.02,0.18,0.00,22.92,26.60,29.07,9.53,40.42,1005.39,2041.56,3406.03,3285.60,3555.76,500.36,491.56,15.23,0000 0000 0000 0000 000000
2014-09-17 01:34:06,-0.00,0.18,0.00,22.93,26.60,29.10,9.47,40.52,1005.39,2041.40,3406.01,3285.19,3555.16,499.81,491.16,15.27,0000 0000 0000 0000 000000
2014-09-17 01:39:07,0.02,0.18,0.00,22.88,26.61,29.12,9.48,40.39,1005.40,2041.49,3406.00,3285.10,3555.04,499.95,491.53,15.31,0000 0000 0000 0000 000000
2014-09-17 01:44:08,-0.02,0.18,0.00,22.88,26.62,29.13,9.44,40.43,1005.42,2041.35,3406.00,3285.03,3555.01,499.97,491.30,15.35,0000 0000 0000 0000 000000
2014-09-17 01:49:09,-0.01,0.18,0.00,22.87,26.62,29.13,9.46,40.45,1005.50,2041.33,3405.96,3285.02,3555.00,499.56,491.17,15.39,0000 0000 0000 0000 000000
2014-09-17 01:54:10,0.01,0.18,0.00,22.86,26.62,29.13,9.48,40.28,1005.65,2041.34,3405.95,3285.01,3555.00,500.25,491.83,15.44,0000 0000 0000 0000 000000
2014-09-17 01:59:11,0.01,0.18,0.00,22.88,26.62,29.12,9.52,40.44,1005.66,2041.37,3405.48,3285.00,3554.99,500.08,491.62,15.48,0000 0000 0000 0000 000000
2014-09-17 02:04:13,0.01,0.18,0.00,22.92,26.62,29.13,9.44,40.20,1005.57,2041.31,3405.11,3285.00,3554.94,499.69,491.17,15.52,0000 0000 0000 0000 000000
2014-09-17 02:09:13,-0.00,0.18,0.00,22.93,26.64,29.14,9.46,40.19,1005.47,2041.22,3405.02,3284.99,3554.57,499.86,491.33,15.56,0000 0000 0000 0000 000000
2014-09-17 02:14:15,-0.01,0.18,0.00,22.90,26.64,29.16,9.45,40.22,1005.40,2041.13,3405.00,3284.99,3554.24,499.86,491.27,15.60,0000 0000 0000 0000 000000
2014-09-17 02:19:15,0.01,0.18,0.00,22.86,26.65,29.16,9.50,40.31,1005.39,2041.14,3404.99,3284.96,3554.02,500.18,491.58,15.64,0000 0000 0000 0000 000000
2014-09-17 02:24:16,0.00,0.18,0.00,22.86,26.65,29.16,9.53,40.28,1005.39,2041.12,3404.97,3284.88,3554.00,499.81,491.27,15.69,0000 0000 0000 0000 000000
2014-09-17 02:29:18,0.01,0.18,0.00,22.92,26.65,29.14,9.41,40.33,1005.41,2041.07,3404.99,3284.55,3554.00,500.04,491.31,15.73,0000 0000 0000 0000 000000
2014-09-17 02:34:19,0.00,0.18,0.00,22.92,26.65,29.15,9.47,40.60,1005.44,2041.05,3404.94,3284.16,3553.99,499.70,491.11,15.77,0000 0000 0000 0000 000000
2014-09-17 02:39:20,0.01,0.18,0.00,22.90,26.65,29.18,9.51,40.32,1005.54,2041.06,3404.51,3284.04,3553.95,500.31,491.86,15.81,0000 0000 0000 0000 000000
2014-09-17 02:44:22,0.00,0.18,0.00,22.87,26.65,29.19,9.52,40.45,1005.71,2041.06,3404.50,3284.05,3553.93,500.26,491.76,15.85,0000 0000 0000 0000 000000
2014-09-17 02:49:23,0.01,0.18,0.00,22.81,26.66,29.18,9.51,40.38,1005.82,2041.06,3404.32,3284.03,3553.82,500.31,492.07,15.90,0000 0000 0000 0000 000000
2014-09-17 02:54:24,0.01,0.18,0.00,22.85,26.67,29.17,9.46,40.52,1005.76,2041.10,3404.09,3284.02,3553.66,500.13,491.79,15.94,0000 0000 0000 0000 000000
2014-09-17 02:59:25,0.00,0.18,0.00,22.91,26.67,29.15,9.52,40.28,1005.85,2041.06,3404.06,3284.00,3553.24,500.25,491.95,15.98,0000 0000 0000 0000 000000
2014-09-17 03:04:26,0.00,0.18,0.00,22.95,26.67,29.18,9.44,40.23,1005.87,2041.03,3404.00,3284.00,3553.04,499.75,491.40,16.02,0000 0000 0000 0000 000000
2014-09-17 03:09:27,0.00,0.18,0.00,22.93,26.67,29.18,9.51,40.35,1005.87,2041.03,3403.98,3283.99,3553.00,499.87,491.50,16.06,0000 0000 0000 0000 000000
2014-09-17 03:14:29,-0.00,0.18,0.00,22.87,26.67,29.24,9.45,40.20,1005.88,2041.03,3403.97,3283.98,3553.00,499.52,491.16,16.11,0000 0000 0000 0000 000000
2014-09-17 03:19:29,0.00,0.18,0.00,22.76,26.67,29.25,9.52,40.53,1005.88,2041.03,3403.92,3283.98,3552.99,499.93,491.79,16.15,0000 0000 0000 0000 000000
2014-09-17 03:24:30,0.00,0.18,0.00,22.71,26.67,29.29,9.47,40.46,1005.91,2041.03,3403.96,3283.97,3552.98,500.11,491.98,16.19,0000 0000 0000 0000 000000
2014-09-17 03:29:31,0.00,0.18,0.00,22.64,26.68,29.17,9.44,40.48,1006.20,2041.05,3403.96,3283.95,3552.98,500.05,492.19,16.23,0000 0000 0000 0000 000000
2014-09-17 03:34:32,0.03,0.18,0.00,22.66,26.70,29.13,9.50,40.52,1006.30,2041.02,3403.59,3283.51,3552.76,500.01,492.33,16.27,0000 0000 0000 0000 000000
2014-09-17 03:39:33,0.01,0.18,0.00,22.74,26.70,29.15,9.48,40.34,1006.33,2041.01,3403.38,3283.29,3552.39,499.96,492.08,16.31,0000 0000 0000 0000 000000
2014-09-17 03:44:34,0.01,0.19,0.00,22.84,26.70,29.16,9.50,40.55,1006.35,2041.01,3403.12,3283.15,3552.13,499.80,491.95,16.36,0000 0000 0000 0000 000000
2014-09-17 03:49:36,0.00,0.19,0.00,22.87,26.72,29.17,9.43,40.63,1006.36,2041.01,3403.01,3283.01,3552.01,500.05,491.92,16.40,0000 0000 0000 0000 000000
2014-09-17 03:54:37,0.00,0.19,0.00,22.91,26.72,29.18,9.46,40.41,1006.36,2041.00,3403.00,3283.00,3552.00,500.19,492.09,16.44,0000 0000 0000 0000 000000
2014-09-17 03:59:38,0.00,0.19,0.00,22.92,26.73,29.20,9.43,40.15,1006.37,2041.00,3402.99,3283.00,3552.00,499.76,491.65,16.48,0000 0000 0000 0000 000000
2014-09-17 04:04:39,0.00,0.19,0.00,22.93,26.75,29.20,9.48,40.33,1006.37,2041.00,3402.99,3283.00,3551.99,500.30,492.08,16.52,0000 0000 0000 0000 000000
2014-09-17 04:09:40,0.00,0.19,0.00,22.93,26.75,29.22,9.50,40.33,1006.36,2041.00,3402.97,3282.98,3551.97,499.83,491.70,16.57,0000 0000 0000 0000 000000
2014-09-17 04:14:41,0.01,0.19,0.00,22.94,26.76,29.21,9.48,40.30,1006.37,2041.00,3402.87,3282.92,3551.69,499.67,491.50,16.61,0000 0000 0000 0000 000000
2014-09-17 04:19:42,-0.00,0.19,0.00,22.93,26.77,29.22,9.46,40.43,1006.36,2041.00,3402.90,3282.89,3551.50,499.92,491.53,16.65,0000 0000 0000 0000 000000
2014-09-17 04:24:43,0.01,0.19,0.00,22.95,26.77,29.23,9.50,40.37,1006.38,2040.99,3402.77,3282.78,3551.22,500.29,492.12,16.69,0000 0000 0000 0000 000000
2014-09-17 04:29:44,0.02,0.19,0.00,22.94,26.77,29.22,9.53,40.45,1006.38,2040.99,3402.54,3282.29,3551.03,500.09,491.91,16.73,0000 0000 0000 0000 000000
2014-09-17 04:34:45,-0.01,0.19,0.00,22.94,26.77,29.23,9.43,40.34,1006.37,2040.99,3402.53,3282.31,3551.03,499.71,491.67,16.77,0000 0000 0000 0000 000000
2014-09-17 04:39:46,0.02,0.19,0.00,22.95,26.78,29.23,9.49,40.18,1006.36,2040.99,3402.10,3282.07,3551.00,499.86,491.73,16.82,0000 0000 0000 0000 000000
2014-09-17 04:44:48,-0.00,0.19,0.00,22.94,26.78,29.24,9.53,40.42,1006.36,2040.99,3402.05,3282.04,3551.00,500.18,491.98,16.86,0000 0000 0000 0000 000000
2014-09-17 04:49:49,-0.00,0.19,0.00,22.93,26.78,29.25,9.47,40.41,1006.37,2040.96,3402.00,3282.00,3550.97,500.05,491.89,16.90,0000 0000 0000 0000 000000
2014-09-17 04:54:50,0.00,0.19,0.00,22.93,26.78,29.24,9.48,40.17,1006.43,2040.97,3402.00,3282.00,3550.94,500.36,492.18,16.94,0000 0000 0000 0000 000000
2014-09-17 04:59:51,0.00,0.19,0.00,22.93,26.78,29.25,9.51,40.27,1006.64,2040.98,3401.98,3282.00,3550.80,499.87,491.69,16.98,0000 0000 0000 0000 000000
2014-09-17 05:04:53,0.00,0.19,0.00,22.93,26.78,29.24,9.50,40.38,1006.78,2040.98,3401.96,3282.00,3550.55,499.84,491.79,17.03,0000 0000 0000 0000 000000
2014-09-17 05:09:54,0.00,0.19,0.00,22.92,26.78,29.24,9.47,40.36,1006.85,2040.99,3401.95,3282.00,3550.48,499.74,491.96,17.07,0000 0000 0000 0000 000000
2014-09-17 05:14:55,0.01,0.19,0.00,22.93,26.78,29.24,9.46,40.23,1006.85,2040.99,3401.76,3281.99,3550.14,499.98,492.09,17.11,0000 0000 0000 0000 000000
2014-09-17 05:19:56,0.01,0.19,0.00,22.93,26.78,29.24,9.51,40.48,1006.86,2040.98,3401.45,3281.99,3550.02,499.89,492.07,17.15,0000 0000 0000 0000 000000
2014-09-17 05:24:58,0.00,0.19,0.00,22.94,26.77,29.24,9.49,40.34,1006.86,2040.98,3401.06,3281.98,3550.00,500.17,492.28,17.19,0000 0000 0000 0000 000000
2014-09-17 05:29:59,-0.00,0.19,0.00,22.95,26.77,29.24,9.45,40.27,1006.86,2040.98,3401.02,3281.98,3550.00,499.96,491.92,17.24,0000 0000 0000 0000 000000
2014-09-17 05:35:00,-0.00,0.19,0.00,22.96,26.77,29.23,9.44,40.13,1006.86,2040.98,3401.00,3281.98,3550.00,499.83,491.78,17.28,0000 0000 0000 0000 000000
2014-09-17 05:40:01,0.00,0.19,0.00,22.95,26.77,29.24,9.48,40.35,1006.87,2040.99,3401.00,3281.95,3550.00,499.94,492.00,17.32,0000 0000 0000 0000 000000
2014-09-17 05:45:02,0.01,0.19,0.00,22.93,26.77,29.24,9.46,40.33,1006.89,2040.99,3400.98,3281.74,3549.98,500.04,491.98,17.36,0000 0000 0000 0000 000000
2014-09-17 05:50:03,-0.00,0.19,0.00,22.94,26.77,29.24,9.52,40.33,1006.96,2040.99,3400.98,3281.69,3549.95,500.01,492.11,17.40,0000 0000 0000 0000 000000
2014-09-17 05:55:04,0.01,0.19,0.00,22.94,26.77,29.24,9.47,40.28,1007.17,2040.98,3400.95,3281.37,3549.84,499.80,491.87,17.45,0000 0000 0000 0000 000000
2014-09-17 06:00:05,0.01,0.19,0.00,22.94,26.77,29.24,9.50,40.27,1007.24,2040.98,3400.91,3281.12,3549.52,499.62,491.96,17.49,0000 0000 0000 0000 000000
2014-09-17 06:05:06,0.00,0.19,0.00,22.95,26.78,29.24,9.60,40.32,1007.19,2040.98,3400.94,3281.15,3549.53,500.04,492.26,17.53,0000 0000 0000 0000 000000
2014-09-17 06:10:07,0.01,0.19,0.00,22.97,26.78,29.24,9.48,40.32,1007.28,2040.98,3400.83,3281.11,3549.18,499.95,492.18,17.57,0000 0000 0000 0000 000000
2014-09-17 06:15:09,0.01,0.19,0.00,22.96,26.79,29.24,9.43,40.21,1007.27,2040.98,3400.61,3281.08,3549.07,499.61,491.87,17.61,0000 0000 0000 0000 000000
2014-09-17 06:20:10,0.01,0.19,0.00,22.97,26.79,29.24,9.44,40.22,1007.31,2040.99,3400.14,3281.03,3549.02,500.03,492.24,17.65,0000 0000 0000 0000 000000
2014-09-17 06:25:11,0.00,0.19,0.00,22.97,26.80,29.24,9.49,40.34,1007.33,2040.99,3400.02,3281.01,3549.00,499.91,492.16,17.70,0000 0000 0000 0000 000000
2014-09-17 06:30:12,-0.00,0.19,0.00,22.98,26.80,29.24,9.47,40.30,1007.32,2040.97,3400.01,3281.00,3548.99,499.54,491.88,17.74,0000 0000 0000 0000 000000
2014-09-17 06:35:13,0.00,0.19,0.00,22.97,26.80,29.24,9.58,40.36,1007.34,2040.97,3400.00,3281.00,3548.99,500.38,492.58,17.78,0000 0000 0000 0000 000000
2014-09-17 06:40:14,0.00,0.19,0.00,22.97,26.80,29.24,9.46,40.38,1007.34,2040.95,3399.99,3280.99,3548.94,499.60,492.02,17.82,0000 0000 0000 0000 000000
2014-09-17 06:45:15,0.00,0.19,0.00,22.98,26.80,29.25,9.59,40.30,1007.34,2040.98,3399.98,3280.99,3548.88,500.37,492.56,17.86,0000 0000 0000 0000 000000
2014-09-17 06:50:16,0.01,0.19,0.00,22.97,26.80,29.24,9.57,40.23,1007.34,2040.98,3399.65,3280.98,3548.41,499.51,491.73,17.91,0000 0000 0000 0000 000000
2014-09-17 06:55:17,0.01,0.19,0.00,22.99,26.80,29.25,9.45,40.23,1007.43,2040.98,3399.23,3280.95,3548.10,500.04,492.32,17.95,0000 0000 0000 0000 000000
2014-09-17 07:00:19,0.01,0.19,0.00,22.98,26.80,29.25,9.44,40.23,1007.77,2040.97,3399.08,3280.82,3548.03,499.93,492.45,17.99,0000 0000 0000 0000 000000
2014-09-17 07:05:20,0.00,0.19,0.00,22.99,26.80,29.24,9.51,40.27,1007.81,2040.97,3399.01,3280.68,3548.01,499.90,492.38,18.03,0000 0000 0000 0000 000000
2014-09-17 07:10:21,0.00,0.19,0.00,22.98,26.80,29.25,9.48,40.33,1007.82,2040.97,3399.00,3280.62,3548.01,500.45,492.90,18.07,0000 0000 0000 0000 000000
2014-09-17 07:15:22,0.00,0.19,0.00,22.94,26.79,29.25,9.44,40.26,1007.83,2040.97,3399.02,3280.61,3548.00,499.74,492.36,18.12,0000 0000 0000 0000 000000
2014-09-17 07:20:23,0.00,0.19,0.00,22.94,26.78,29.25,9.52,40.38,1007.83,2040.98,3399.01,3280.43,3548.00,499.77,492.33,18.16,0000 0000 0000 0000 000000
2014-09-17 07:25:25,0.00,0.19,0.00,22.95,26.77,29.24,9.50,40.42,1007.83,2040.97,3399.04,3280.42,3548.00,499.93,492.46,18.20,0000 0000 0000 0000 000000
2014-09-17 07:30:26,0.00,0.19,0.00,22.93,26.77,29.23,9.50,40.47,1007.83,2040.97,3399.01,3280.40,3548.00,500.17,492.56,18.24,0000 0000 0000 0000 000000
2014-09-17 07:35:27,0.00,0.19,0.00,22.93,26.77,29.24,9.51,40.24,1007.83,2040.96,3399.00,3280.27,3547.99,499.99,492.49,18.28,0000 0000 0000 0000 000000
2014-09-17 07:40:28,0.01,0.20,0.00,22.94,26.77,29.23,9.51,40.42,1007.83,2040.97,3398.99,3280.12,3547.97,499.74,492.29,18.33,0000 0000 0000 0000 000000
2014-09-17 07:45:29,0.01,0.20,0.00,22.97,26.77,29.22,9.51,40.25,1007.83,2040.98,3398.72,3280.03,3547.86,500.18,492.64,18.37,0000 0000 0000 0000 000000
2014-09-17 07:50:30,0.01,0.20,0.00,22.93,26.77,29.21,9.42,40.20,1007.84,2040.98,3398.46,3280.01,3547.53,499.88,492.53,18.41,0000 0000 0000 0000 000000
2014-09-17 07:55:31,0.01,0.20,0.00,22.93,26.77,29.22,9.45,40.34,1007.84,2040.98,3398.27,3280.00,3547.18,499.86,492.45,18.45,0000 0000 0000 0000 000000
2014-09-17 08:00:32,0.00,0.20,0.00,22.96,26.77,29.21,9.51,40.41,1007.83,2040.99,3398.26,3280.00,3547.11,499.83,492.20,18.49,0000 0000 0000 0000 000000
2014-09-17 08:05:33,0.00,0.20,0.00,22.96,26.77,29.21,9.51,40.46,1007.83,2040.99,3398.01,3280.01,3547.02,500.37,492.74,18.54,0000 0000 0000 0000 000000
2014-09-17 08:10:34,0.00,0.20,0.00,22.99,26.76,29.19,9.57,40.50,1007.83,2040.99,3398.00,3280.00,3547.00,500.20,492.59,18.58,0000 0000 0000 0000 000000
2014-09-17 08:15:35,0.00,0.20,0.00,23.01,26.76,29.17,9.55,40.47,1007.83,2040.99,3397.99,3280.00,3547.00,500.19,492.53,18.62,0000 0000 0000 0000 000000
2014-09-17 08:20:36,0.01,0.20,0.00,23.01,26.76,29.18,9.59,40.33,1007.85,2040.99,3397.73,3280.00,3546.98,500.35,492.77,18.66,0000 0000 0000 0000 000000
2014-09-17 08:25:38,0.00,0.20,0.00,22.98,26.75,29.18,9.56,40.48,1008.12,2040.99,3397.28,3279.99,3546.90,500.13,492.77,18.70,0000 0000 0000 0000 000000
2014-09-17 08:30:39,0.01,0.20,0.00,23.03,26.75,29.17,9.52,40.41,1008.29,2040.99,3397.15,3279.97,3546.53,500.06,492.71,18.74,0000 0000 0000 0000 000000
2014-09-17 08:35:40,0.00,0.20,0.00,23.05,26.75,29.17,9.46,40.43,1008.31,2040.99,3397.00,3279.90,3546.07,499.88,492.59,18.79,0000 0000 0000 0000 000000
2014-09-17 08:40:41,0.01,0.20,0.00,23.06,26.75,29.18,9.48,40.27,1008.32,2040.99,3397.00,3279.58,3546.00,500.36,493.00,18.83,0000 0000 0000 0000 000000
2014-09-17 08:45:42,0.01,0.20,0.00,23.06,26.76,29.19,9.43,40.29,1008.33,2040.99,3396.97,3279.16,3546.00,499.75,492.34,18.87,0000 0000 0000 0000 000000
2014-09-17 08:50:43,0.01,0.20,0.00,23.06,26.77,29.20,9.49,40.14,1008.36,2040.98,3396.43,3279.01,3545.96,500.14,492.72,18.91,0000 0000 0000 0000 000000
2014-09-17 08:55:45,0.01,0.20,0.00,23.05,26.77,29.20,9.52,40.17,1008.47,2040.99,3396.16,3279.00,3545.65,500.20,492.78,18.95,0000 0000 0000 0000 000000
2014-09-17 09:00:46,0.00,0.20,0.00,23.04,26.77,29.21,9.49,40.31,1008.66,2040.98,3396.01,3279.00,3545.07,500.15,492.90,19.00,0000 0000 0000 0000 000000
2014-09-17 09:05:47,0.00,0.20,0.00,23.04,26.77,29.23,9.55,40.24,1008.68,2040.99,3396.00,3278.98,3545.00,500.42,493.12,19.04,0000 0000 0000 0000 000000
2014-09-17 09:10:48,0.00,0.20,0.00,23.01,26.77,29.24,9.53,40.42,1008.68,2040.99,3395.98,3278.95,3544.99,499.97,492.76,19.08,0000 0000 0000 0000 000000
2014-09-17 09:15:49,0.00,0.20,0.00,22.99,26.77,29.25,9.42,40.18,1008.73,2040.98,3395.95,3278.81,3544.98,499.75,492.65,19.12,0000 0000 0000 0000 000000
2014-09-17 09:20:50,0.01,0.20,0.00,23.00,26.77,29.25,9.47,40.25,1008.77,2040.98,3395.63,3278.58,3544.91,500.18,493.03,19.16,0000 0000 0000 0000 000000
2014-09-17 09:25:51,0.02,0.20,0.00,22.99,26.77,29.25,9.50,40.36,1008.79,2040.99,3395.10,3278.20,3544.62,499.77,492.64,19.20,0000 0000 0000 0000 000000
2014-09-17 09:30:53,0.01,0.20,0.00,22.98,26.77,29.24,9.47,40.32,1008.80,2040.98,3395.02,3278.05,3544.09,499.83,492.78,19.25,0000 0000 0000 0000 000000
2014-09-17 09:35:54,0.00,0.20,0.00,22.94,26.77,29.24,9.55,40.23,1008.80,2040.98,3395.00,3278.01,3544.00,500.47,493.40,19.29,0000 0000 0000 0000 000000
2014-09-17 09:40:55,0.00,0.20,0.00,22.93,26.77,29.23,9.43,40.17,1008.80,2040.98,3394.99,3278.00,3543.99,499.76,492.90,19.33,0000 0000 0000 0000 000000
2014-09-17 09:45:56,-0.00,0.20,0.00,22.94,26.77,29.24,9.54,40.07,1008.80,2040.95,3394.90,3277.99,3543.98,500.06,493.04,19.37,0000 0000 0000 0000 000000
2014-09-17 09:50:57,0.01,0.20,0.00,22.96,26.77,29.23,9.59,40.23,1008.80,2040.97,3394.58,3277.99,3543.90,500.37,493.27,19.41,0000 0000 0000 0000 000000
2014-09-17 09:55:58,0.01,0.20,0.00,22.93,26.77,29.23,9.45,40.20,1008.80,2040.97,3394.08,3277.97,3543.50,499.93,493.07,19.46,0000 0000 0000 0000 000000
2014-09-17 10:00:59,0.00,0.21,0.00,22.94,26.77,29.23,9.53,40.33,1008.81,2040.98,3394.02,3277.91,3543.14,499.82,492.83,19.50,0000 0000 0000 0000 000000
2014-09-17 10:06:00,0.01,0.21,0.00,22.92,26.77,29.23,9.51,40.31,1008.80,2040.97,3394.00,3277.58,3543.00,500.01,492.97,19.54,0000 0000 0000 0000 000000
2014-09-17 10:11:01,0.00,0.21,0.00,22.94,26.77,29.23,9.49,40.17,1008.80,2040.99,3394.00,3277.50,3543.00,500.48,493.44,19.58,0000 0000 0000 0000 000000
2014-09-17 10:16:02,0.00,0.21,0.00,22.94,26.77,29.23,9.49,40.22,1008.81,2040.99,3393.99,3277.37,3542.99,500.01,492.90,19.62,0000 0000 0000 0000 000000
2014-09-17 10:21:04,0.01,0.21,0.00,22.92,26.77,29.22,9.52,40.21,1008.81,2040.99,3393.88,3277.06,3542.93,500.07,493.13,19.67,0000 0000 0000 0000 000000
2014-09-17 10:26:05,0.02,0.21,0.00,22.93,26.76,29.22,9.55,40.30,1008.81,2040.98,3393.17,3277.01,3542.28,500.10,492.94,19.71,0000 0000 0000 0000 000000
2014-09-17 10:31:06,0.00,0.21,0.00,22.95,26.76,29.22,9.57,40.21,1008.80,2040.99,3393.02,3277.00,3542.03,500.17,493.05,19.75,0000 0000 0000 0000 000000
2014-09-17 10:36:08,0.00,0.21,0.00,22.94,26.75,29.22,9.54,40.22,1008.81,2040.99,3393.00,3276.99,3542.01,500.28,493.30,19.79,0000 0000 0000 0000 000000
2014-09-17 10:41:09,0.00,0.21,0.00,22.95,26.75,29.22,9.43,40.17,1008.81,2040.98,3392.96,3276.97,3542.00,499.71,492.68,19.83,0000 0000 0000 0000 000000
2014-09-17 10:46:10,0.01,0.21,0.00,22.94,26.75,29.21,9.45,40.13,1008.81,2040.98,3392.78,3276.85,3541.92,499.92,492.85,19.88,0000 0000 0000 0000 000000
2014-09-17 10:51:11,-0.00,0.21,0.00,22.92,26.75,29.22,9.41,40.33,1008.81,2040.99,3392.68,3276.89,3541.90,499.80,492.81,19.92,0000 0000 0000 0000 000000
2014-09-17 10:56:12,0.03,0.21,0.00,22.92,26.75,29.21,9.47,40.42,1008.80,2040.98,3392.23,3276.62,3541.41,499.85,492.97,19.96,0000 0000 0000 0000 000000
2014-09-17 11:01:13,0.00,0.21,0.00,22.91,26.75,29.22,9.53,40.27,1008.81,2040.98,3392.05,3276.38,3541.08,500.33,493.23,20.00,0000 0000 0000 0000 000000
2014-09-17 11:06:14,0.00,0.21,0.00,22.92,26.75,29.22,9.46,40.16,1008.82,2040.98,3392.01,3276.21,3541.04,500.00,492.95,20.04,0000 0000 0000 0000 000000
2014-09-17 11:11:16,0.00,0.21,0.00,22.92,26.75,29.22,9.57,40.18,1008.83,2040.97,3392.00,3276.03,3541.00,500.06,493.12,20.08,0000 0000 0000 0000 000000
2014-09-17 11:16:16,0.00,0.21,0.00,22.92,26.75,29.21,9.53,40.12,1008.87,2040.98,3391.99,3276.02,3541.00,500.13,493.22,20.13,0000 0000 0000 0000 000000
2014-09-17 11:21:18,0.00,0.21,0.00,22.92,26.75,29.22,9.51,40.13,1009.08,2040.99,3391.99,3276.02,3540.99,499.93,493.09,20.17,0000 0000 0000 0000 000000
2014-09-17 11:26:18,-0.00,0.21,0.00,22.92,26.75,29.21,9.50,40.10,1009.23,2040.99,3391.98,3276.01,3540.98,500.27,493.48,20.21,0000 0000 0000 0000 000000
2014-09-17 11:31:19,0.01,0.21,0.00,22.90,26.75,29.21,9.47,40.23,1009.28,2040.98,3391.81,3276.00,3540.93,499.29,492.64,20.25,0000 0000 0000 0000 000000
2014-09-17 11:36:20,0.00,0.21,0.00,22.90,26.75,29.21,9.50,40.41,1009.28,2040.99,3391.47,3276.00,3540.68,499.83,493.11,20.29,0000 0000 0000 0000 000000
2014-09-17 11:41:21,0.01,0.21,0.00,22.92,26.75,29.21,9.45,40.45,1009.29,2040.98,3391.37,3276.00,3540.45,499.74,493.06,20.34,0000 0000 0000 0000 000000
2014-09-17 11:46:22,0.01,0.21,0.00,22.91,26.75,29.22,9.56,40.43,1009.29,2040.98,3391.04,3275.99,3540.05,500.00,493.35,20.38,0000 0000 0000 0000 000000
2014-09-17 11:51:24,-0.00,0.21,0.00,22.91,26.75,29.22,9.52,40.28,1009.30,2040.96,3391.00,3275.97,3540.00,499.97,493.24,20.42,0000 0000 0000 0000 000000
2014-09-17 11:56:25,0.00,0.21,0.00,22.92,26.75,29.20,9.54,40.17,1009.30,2040.95,3391.00,3275.95,3540.00,499.84,493.15,20.46,0000 0000 0000 0000 000000
2014-09-17 12:01:26,0.00,0.21,0.00,22.90,26.75,29.21,9.57,40.30,1009.30,2040.97,3391.00,3275.89,3539.99,500.26,493.62,20.50,0000 0000 0000 0000 000000
2014-09-17 12:06:27,-0.00,0.21,0.00,22.89,26.75,29.20,9.53,40.30,1009.29,2040.95,3391.00,3275.90,3539.98,499.77,493.05,20.55,0000 0000 0000 0000 000000
2014-09-17 12:11:28,-0.01,0.21,0.00,22.90,26.75,29.21,9.53,40.22,1009.31,2040.81,3391.00,3275.57,3539.91,500.15,493.64,20.59,0000 0000 0000 0000 000000
2014-09-17 12:16:30,0.01,0.21,0.00,22.90,26.75,29.21,9.59,40.27,1009.31,2040.80,3391.00,3275.45,3539.67,500.31,493.66,20.63,0000 0000 0000 0000 000000
2014-09-17 12:21:31,-0.02,0.21,0.00,22.91,26.75,29.21,9.51,40.27,1009.31,2040.43,3390.89,3275.08,3539.09,499.93,492.99,20.67,0000 0000 0000 0000 000000
2014-09-17 12:26:32,0.01,0.21,0.00,22.89,26.75,29.20,9.56,40.40,1009.33,2040.32,3390.56,3275.01,3539.00,500.20,493.46,20.71,0000 0000 0000 0000 000000
2014-09-17 12:31:33,-0.01,0.21,0.00,22.88,26.75,29.21,9.53,40.23,1009.37,2040.24,3390.13,3275.01,3538.99,500.05,493.33,20.76,0000 0000 0000 0000 000000
2014-09-17 12:36:34,-0.01,0.21,0.00,22.86,26.75,29.22,9.43,40.28,1009.42,2040.09,3390.01,3275.00,3538.97,499.82,493.31,20.80,0000 0000 0000 0000 000000
2014-09-17 12:41:35,0.01,0.21,0.00,22.86,26.75,29.23,9.49,40.25,1009.50,2040.14,3390.00,3275.00,3538.84,500.15,493.55,20.84,0000 0000 0000 0000 000000
2014-09-17 12:46:36,0.00,0.21,0.00,22.88,26.75,29.22,9.53,40.36,1009.47,2040.16,3389.99,3275.00,3538.49,499.87,493.16,20.88,0000 0000 0000 0000 000000
2014-09-17 12:51:37,0.01,0.21,0.00,22.89,26.75,29.22,9.49,40.32,1009.42,2040.06,3389.78,3274.98,3538.04,500.03,493.37,20.92,0000 0000 0000 0000 000000
2014-09-17 12:56:38,0.01,0.21,0.00,22.87,26.75,29.22,9.55,40.17,1009.33,2040.06,3389.30,3274.96,3538.00,500.24,493.69,20.96,0000 0000 0000 0000 000000
2014-09-17 13:01:39,0.02,0.21,0.00,22.84,26.76,29.22,9.57,40.12,1009.31,2040.12,3389.03,3274.84,3537.99,500.14,493.50,21.01,0000 0000 0000 0000 000000